| time (UTC) | temp F | wind direction | speed knots | gust knots | rain 1hr in | rain 24hr in | rain mn in | humidity % | barometer mb |
| 20260506163022 | 50 | 0.0 | 0.0 | 0.00 | 0.01 | 0.01 | 94 | 1022.1 | |
| 20260506160021 | 48 | 0.0 | 0.0 | 0.00 | 0.01 | 0.01 | 95 | 1022.0 | |
| 20260506153021 | 43 | 0.0 | 0.0 | 0.00 | 0.01 | 0.01 | 95 | 1021.0 | |
| 20260506150021 | 39 | 0.0 | 0.0 | 0.00 | 0.01 | 0.01 | 95 | 1020.3 | |
| 20260506140314 | 38 | 0.0 | 0.0 | 0.00 | 0.01 | 0.01 | 94 | 1019.5 | |
| 20260506133041 | 38 | 0.0 | 0.0 | 0.00 | 0.01 | 0.01 | 93 | 1019.4 | |
| 20260506130021 | 39 | 0.0 | 0.0 | 0.00 | 0.01 | 0.01 | 93 | 1019.4 | |
| 20260506123021 | 40 | 0.0 | 0.0 | 0.00 | 0.02 | 0.01 | 93 | 1019.2 | |
| 20260506120021 | 41 | 0.0 | 0.0 | 0.00 | 0.02 | 0.01 | 94 | 1019.4 | |
| 20260506113021 | 41 | 0.0 | 0.0 | 0.00 | 0.02 | 0.01 | 94 | 1019.3 | |
| 20260506110207 | 42 | 0.0 | 0.0 | 0.01 | 0.02 | 0.01 | 94 | 1019.1 | |
| 20260506103021 | 42 | 0.0 | 0.0 | 0.01 | 0.02 | 0.01 | 94 | 1019.5 | |
| 20260506100020 | 42 | 0.0 | 0.0 | 0.00 | 0.01 | 0.00 | 94 | 1019.5 | |
| 20260506093020 | 42 | 0.0 | 0.0 | 0.00 | 0.01 | 0.00 | 94 | 1019.4 | |
| 20260506090026 | 42 | 0.0 | 0.0 | 0.00 | 0.01 | 0.00 | 94 | 1018.6 | |
| 20260506083021 | 42 | 0.0 | 0.0 | 0.00 | 0.01 | 0.00 | 94 | 1018.8 | |
| 20260506073021 | 42 | 0.0 | 0.0 | 0.00 | 0.01 | 0.00 | 94 | 1019.2 | |
| 20260506043022 | 43 | 0.0 | 0.0 | 0.00 | 0.01 | 0.01 | 94 | 1017.2 | |
| 20260506040021 | 43 | 0.0 | 0.0 | 0.00 | 0.01 | 0.01 | 94 | 1016.4 | |
| 20260506033020 | 43 | 0.0 | 0.0 | 0.00 | 0.01 | 0.01 | 94 | 1015.9 | |
| 20260506030043 | 43 | 0.0 | 0.0 | 0.00 | 0.01 | 0.01 | 94 | 1015.6 | |
| 20260506023022 | 43 | 0.0 | 0.0 | 0.00 | 0.01 | 0.01 | 94 | 1015.4 | |
| 20260506020022 | 43 | 0.0 | 0.0 | 0.00 | 0.01 | 0.01 | 94 | 1015.2 | |
| 20260506013022 | 43 | 0.0 | 0.0 | 0.00 | 0.01 | 0.01 | 93 | 1015.1 | |
| 20260506010022 | 43 | 0.0 | 0.0 | 0.00 | 0.01 | 0.01 | 93 | 1015.3 | |
| 20260506003041 | 43 | 0.0 | 0.9 | 0.00 | 0.01 | 0.01 | 93 | 1015.3 | |
| 20260506000022 | 43 | 0.0 | 1.7 | 0.00 | 0.01 | 0.01 | 93 | 1015.2 | |
| 20260505223022 | 44 | 0.0 | 0.0 | 0.00 | 0.02 | 0.01 | 93 | 1015.2 | |
| 20260505220022 | 44 | 0.0 | 1.7 | 0.00 | 0.02 | 0.01 | 92 | 1015.4 | |
| 20260505213021 | 44 | 0.0 | 2.6 | 0.00 | 0.02 | 0.01 | 92 | 1015.3 | |
| 20260505210021 | 44 | 0.0 | 1.7 | 0.00 | 0.02 | 0.01 | 92 | 1015.4 | |
| 20260505203022 | 44 | 0.0 | 0.9 | 0.00 | 0.02 | 0.01 | 92 | 1015.1 | |
| 20260505200022 | 44 | 0.0 | 1.7 | 0.00 | 0.02 | 0.01 | 91 | 1015.3 | |
| 20260505193022 | 45 | 0.0 | 2.6 | 0.00 | 0.02 | 0.01 | 91 | 1015.2 | |
| 20260505190022 | 44 | 0.0 | 3.5 | 0.00 | 0.02 | 0.01 | 91 | 1014.9 | |
| 20260505183021 | 44 | 0.0 | 0.9 | 0.00 | 0.02 | 0.01 | 93 | 1014.9 | |
| 20260505180021 | 43 | 0.0 | 0.9 | 0.00 | 0.02 | 0.01 | 93 | 1014.5 | |
| 20260505173021 | 42 | 0.0 | 1.7 | 0.00 | 0.02 | 0.01 | 92 | 1014.1 | |
| 20260505170415 | 42 | 23 | 0.9 | 1.7 | 0.00 | 0.02 | 0.01 | 92 | 1013.7 |